Regional Weather Roundup
Issued by NWS

Home | Current Version | Previous Version | Graphics & Text | Print | Product List | Glossary On
Versions: 1 2 3 4 5 6 7 8 9 10 11 12 13 14 15 16 17 18 19 20 21 22 23 24 25 26 27 28 29 30 31 32 33 34 35 36 37 38 39 40 41 42 43 44 45 46 47 48 49 50
000
ASUS43 KMKX 282321
RWRWI

WISCONSIN REGIONAL WEATHER ROUNDUP
NATIONAL WEATHER SERVICE MILWAUKEE/SULLIVAN WI
600 PM CDT MON JUL 28 2014

NOTE: "FAIR" INDICATES FEW OR NO CLOUDS BELOW 12,000 FEET WITH NO
SIGNIFICANT WEATHER AND/OR OBSTRUCTIONS TO VISIBILITY.

WIZ001-002-006>008-014>016-023>028-290000-
NORTHWEST WISCONSIN

CITY           SKY/WX    TMP DP  RH WIND       PRES   REMARKS
SUPERIOR ARPT  CLOUDY    73  56  55 NW5       30.09F
ASHLAND        MOSUNNY   72  56  57 W6        30.09F
HAYWARD        PTSUNNY   73  52  47 VRB6      30.12F
SIREN          SUNNY     73  51  46 N5        30.13F
RICE LAKE      MOSUNNY   72  50  46 NW8       30.14F
LADYSMITH      PTSUNNY   71  54  54 NW9       30.13F
EAU CLAIRE     SUNNY     74  51  44 NW8       30.11F
MENOMONIE      CLEAR     74  49  41 NW6       30.12F
NEW RICHMOND   SUNNY     73  51  47 NW6       30.14F
OSCEOLA        SUNNY     74  53  47 NW7       30.16F
$$

WIZ003>005-009-010-017-018-290000-
NORTH CENTRAL WISCONSIN

CITY           SKY/WX    TMP DP  RH WIND       PRES   REMARKS
WOODRUFF       MOSUNNY   69  54  57 NW7       30.10F
RHINELANDER    CLOUDY    67  52  58 VRB7      30.10F
EAGLE RIVER    PTSUNNY   68  49  51 NW10G17   30.08F
LAND O LAKES   MOSUNNY   68  51  53 NW8G16    30.09F
PHILLIPS       CLOUDY    67  54  64 NW6       30.11S
TOMAHAWK       CLOUDY    67  51  56 NW7       30.11S
MEDFORD        CLOUDY    67  53  61 NW9       30.12S
MERRILL        CLOUDY    68  55  62 NW3       30.10S
$$

WIZ029-030-035-036-043>047-290000-
CENTRAL WISCONSIN

CITY           SKY/WX    TMP DP  RH WIND       PRES   REMARKS
WAUSAU         CLOUDY    70  50  49 NW13      30.08S
MOSINEE        NOT AVBL
MARSHFIELD     PTSUNNY   72  53  51 NW13      30.10F
STEVENS POINT  CLOUDY    69  52  54 NW6       30.09S
WAUPACA        CLOUDY    73  49  42 N6        30.07R
WAUTOMA        PTSUNNY   75  52  44 NW12      30.08S
WISC RAPIDS    SUNNY     73  52  47 NW14      30.10F
CAMP DOUGLAS   PTSUNNY   72  55  56 NW7       30.10F
$$

WIZ011>013-019>022-031-037>040-048>050-290000-
NORTHEAST WISCONSIN

CITY           SKY/WX    TMP DP  RH WIND       PRES   REMARKS
ANTIGO         MOSUNNY   67  52  58 NW14      30.09S
STURGEON BAY   PTSUNNY   64  50  59 S6        30.05S
GREEN BAY      CLOUDY    70  53  54 N7        30.05S
MANITOWOC      CLOUDY    60  47  61 SE6       30.06F
APPLETON       PTSUNNY   70  48  46 N10       30.07R
CLINTONVILLE   CLOUDY    70  50  49 N3        30.06S
OSHKOSH        PTSUNNY   73  52  47 N13       30.05S
$$

WIZ032>034-041-042-053>061-290000-
SOUTHWEST WISCONSIN

CITY           SKY/WX    TMP DP  RH WIND       PRES   REMARKS
LA CROSSE      MOSUNNY   76  50  40 NW9       30.12S
SPARTA         MOSUNNY   73  48  40 NW9       30.12S
VIROQUA        FAIR      70  49  48 NW8       30.14S
BOSCOBEL       MOSUNNY   76  50  40 NW9       30.12F
PRAIRIE DU CHI MOSUNNY   74  47  38 N7        30.12F
PLATTEVILLE    PTSUNNY   70  51  50 NW9       30.14S
$$

WIZ056-057-062-063-064-067-068-290000-
SOUTH CENTRAL WISCONSIN

CITY           SKY/WX    TMP DP  RH WIND       PRES   REMARKS
BARABOO/DELLS  MOSUNNY   73  47  40 NW8       30.10S
LONE ROCK      MOSUNNY   76  51  41 NW8       30.11F
WATERTOWN      MOSUNNY   71  53  51 NW7       30.07S
MADISON        PTSUNNY   73  51  46 NW9       30.09F
MIDDLETON      FAIR      73  49  41 NW10      30.10S
MONROE         PTSUNNY   72  50  46 NW7       30.10F
JANESVILLE     PTSUNNY   73  46  38 NW12      30.08F
$$

WIZ051-052-058>065-066-070>072-290000-
SOUTHEAST WISCONSIN

CITY           SKY/WX    TMP DP  RH WIND       PRES   REMARKS
MILWAUKEE      PTSUNNY   63  49  60 SE3       30.08F
WAUKESHA       PTSUNNY   70  52  52 NW12      30.08F
MILWAUKEE/TIMM CLOUDY    66  48  52 E5        30.08S
RACINE         SUNNY     64  49  57 NE3       30.09F
BURLINGTON     MOSUNNY   68  50  53 NW7       30.07F
KENOSHA        MOSUNNY   66  52  60 E7        30.08F
FOND DU LAC    CLOUDY    73  50  44 N15       30.06S
SHEBOYGAN      PTSUNNY   63  49  60 E6        30.06F
WEST BEND      CLOUDY    64  52  63 SE6       30.06S
JUNEAU         PTSUNNY   69  47  44 W3        30.08S
$$

LSZ147-162-290000-
LAKE SUPERIOR

STATION/POSITION TIME  TEMP    WIND        PRES    WAVE
                       AIR SEA DIR/SP/G            HT/PER
                 (UTC) (F)     (DEG/KT/KT) (MB)    (FT/S)
W MID LAKE BUOY  2250   53 44  230/  6/  8 1017.7F   1
PORT WING        2240   70     240/  8/  9 1018.6F
SAXON HARBOR     2200             CALM     1019.0F
$$

LMZ867-665-643>646-290000-
LAKE MICHIGAN

STATION/POSITION TIME  TEMP    WIND        PRES    WAVE
                       AIR SEA DIR/SP/G            HT/PER
                 (UTC) (F)     (DEG/KT/KT) (MB)    (FT/S)
N MID LAKE BUOY  2250   55 52  210/  8/  8 1016.3F   0
NORTHPORT PIER   2200   65     130/  4/  6 1016.9S
SISTER BAY       2225   68     280/  8/  9   N/A
KEWAUNEE LAKESHO 2300   55     190/  6/  7 1018.4F
SHEBOYGAN LAKESH 2300   59     190/  4/  4 1018.2F
PORT WASHINGTON  2240   62     140/  2/  3 1018.6F
ATWATER BUOY     2300   61     120/  4     1019.3F
MILWAUKEE LAKESH 2300   61     100/  4/  4   N/A
S MID LAKE BUOY  2250   60 60  360/ 12/ 14 1018.2F   5/ 6
KENOSHA   LAKESH 2300   61      50/  7/  8 1018.3F
$$

TC  - TEMPERATURE IN CELSIUS
VSB - VISIBILITY IN STATUTE MILES
WCI - WIND CHILL INDEX
HX  - HEAT INDEX



USA.gov is the U.S. government's official web portal to all federal, state and local government web resources and services.